Voltar ao catálogo

STARLINK-31833

AtivoComunicaçõesVLEO
NORAD 59733·PAYLOAD·🇺🇸 United States

Lançado May 13, 2024 de Cape Canaveral Space Force Station

Loading…

Próximas Passagens (próximas 24 horas)

TLE

AtualizadoSource: CelesTrak SupGP

Época: Sep 15, 2026, 03:18 UTC

1 59733C 24090D   26258.13798611 -.00050806  00000+0 -18406-2 0  2580
2 59733  43.0028 193.7592 0001431 266.5429  28.7674 15.27596488    15

Acompanhe STARLINK-31833 em tempo real com AllMySat

Download on the App Store